Terug naar catalogus

METEOR 1-27

ActiefWeerPO
NORAD 9903·PAYLOAD·🇷🇺 Russia

Gelanceerd Apr 5, 1977 vanaf Plesetsk Cosmodrome

Loading…

Volgende Passages (komende 24 uur)

TLE

VersSource: Space-Track

Epoch: Sep 14, 2026, 09:38 UTC

1 09903U 77024A   26257.40143066  .00000170  00000-0  90330-4 0  9994
2 09903  81.2704  51.2486 0037844 110.9257 249.5970 14.08730630540111

Volg METEOR 1-27 in realtime met AllMySat

Download on the App Store